Location: Henau
(47.4548°N, 9.1164°E)
Time: 00:05:05
(UTC+00:00)

SL-08 RB Rocket - Pass Details

Date: 03 March 2021
Orbit: 646 x 684 km, 97.8° (Epoch: 20 April)

Event Time Altitude Azimuth Distance (km) Brightness Sun altitude
Rises 18:50:06 0° 176° (S) 2,963 6.9 -17.4°
Reaches altitude 10° 18:52:20 10° 180° (S) 2,061 6.1 -17.8°
Maximum altitude 18:56:46 57° 260° (W) 778 4.3 -18.5°
Drops below altitude 10° 19:01:17 10° 339° (NNW) 2,100 6.7 -19.2°
Sets 19:03:35 0° 344° (NNW) 3,025 7.5 -19.6°
